SM4IVE-5 Odensbacken SE current weather conditions

sailwx.info

Wind from 176 at 1 knots gusting 6

Air temperature 3.9° C
Dewpoint 3.6° C

Last reported at 2019-Dec-15 12:06 UTC.
Time now 2019-Dec-15 12:32 UTC

Location: N 59°09' E 015°32'.
View on Google Maps.

See reports from other nearby stations

  
Tides and Currents Weather Stations Pressure Air Temp Water Temp Dewpoint Dewpoint Depression Visibility Wind Speed Wind Dir Waves Ship Positions
date/time (UTC)wind fromknots sea level pressurealtimeterstation pressurevisibilityair tempwater tempwave heightnotes
2019-Dec-15 12:06 176 1 gusting 6 3.9
2019-Dec-15 12:00 172 2 gusting 5 3.9
2019-Dec-15 11:55 166 3.9
2019-Dec-15 11:50 164 0 gusting 5 3.9
2019-Dec-15 11:45 163 0 gusting 5 3.9
2019-Dec-15 11:40 158 3.9
2019-Dec-15 11:35 160 0 gusting 5 3.9
2019-Dec-15 11:30 173 3.9
2019-Dec-15 11:25 176 2 gusting 6 4.4
2019-Dec-15 11:20 171 2 gusting 6 3.9
2019-Dec-15 11:15 169 3.9
2019-Dec-15 11:10 178 3.9
2019-Dec-15 11:05 186 1 gusting 6 3.9
2019-Dec-15 11:00 165 1 gusting 6 3.9
2019-Dec-15 10:55 167 0 gusting 6 3.9
2019-Dec-15 10:50 167 3.9
2019-Dec-15 10:45 159 3.9
2019-Dec-15 10:40 171 3.9
2019-Dec-15 10:35 171 1 gusting 5 3.9
2019-Dec-15 10:30 161 3.9
2019-Dec-15 10:25 160 0 gusting 6 3.9
2019-Dec-15 10:20 182 1 gusting 5 3.9
2019-Dec-15 10:15 152 1 gusting 6 3.9
2019-Dec-15 10:10 146 3.9
2019-Dec-15 10:05 146 3.9
2019-Dec-15 10:00 146 1 gusting 6 3.3
2019-Dec-15 09:55 145 0 gusting 4 3.3
2019-Dec-15 09:50 142 3.3
2019-Dec-15 09:45 142 3.3
2019-Dec-15 09:40 142 3.3
2019-Dec-15 09:35 142 2 gusting 6 3.3
2019-Dec-15 09:30 143 3.3
2019-Dec-15 09:25 143 3.3
2019-Dec-15 09:20 142 2 gusting 6 3.3
2019-Dec-15 09:15 144 2 gusting 6 3.3
2019-Dec-15 09:10 145 0 gusting 6 3.3
2019-Dec-15 09:05 146 1 gusting 6 3.3
2019-Dec-15 09:00 146 -16.1
2019-Dec-15 08:55 145 3.3
2019-Dec-15 08:50 146 0 gusting 3 2.8
2019-Dec-15 08:45 146 2.8
2019-Dec-15 08:40 146 2.8
2019-Dec-15 08:35 146 2.8
2019-Dec-15 08:30 146 2.8
2019-Dec-15 08:25 146 1 gusting 6 2.8
2019-Dec-15 08:20 146 2 gusting 8 2.8
2019-Dec-15 08:15 150 2 gusting 6 2.8
2019-Dec-15 08:10 149 1 gusting 5 2.8
2019-Dec-15 08:05 149 2.8
2019-Dec-15 08:00 149 1 gusting 6 2.8
2019-Dec-15 07:55 149 2 gusting 6 2.8
2019-Dec-15 07:50 150 0 gusting 6 2.8
2019-Dec-15 07:45 148 0 gusting 6 2.8
2019-Dec-15 07:40 148 1 gusting 5 2.8
2019-Dec-15 07:35 146 2 gusting 4 2.8
2019-Dec-15 07:30 146 2.8
2019-Dec-15 07:25 145 1 gusting 6 2.8
2019-Dec-15 07:20 145 2.8
2019-Dec-15 07:15 145 1 gusting 3 2.8
2019-Dec-15 07:10 145 0 gusting 3 2.8
2019-Dec-15 07:05 145 1 gusting 3 2.8
2019-Dec-15 07:00 145 2.8
2019-Dec-15 06:55 145 2.8
2019-Dec-15 06:50 145 2.8
2019-Dec-15 06:45 145 2.8
2019-Dec-15 06:40 145 2.8
2019-Dec-15 06:35 145 2.8
2019-Dec-15 06:30 145 2.8
2019-Dec-15 06:25 145 2.2
2019-Dec-15 06:20 145 2.2
2019-Dec-15 06:15 145 2.2
2019-Dec-15 06:10 145 2.8
2019-Dec-15 06:06 145 2.8
2019-Dec-15 06:00 145 2.8
2019-Dec-15 05:55 145 2.8
2019-Dec-15 05:50 145 0 gusting 2 2.8
2019-Dec-15 05:45 145 2.8
2019-Dec-15 05:40 145 2.8
2019-Dec-15 05:35 145 2.8
2019-Dec-15 05:30 145 2.8
2019-Dec-15 05:25 145 2.8
2019-Dec-15 05:20 145 2.8
2019-Dec-15 05:15 145 2.8
2019-Dec-15 05:10 145 0 gusting 2 2.8
2019-Dec-15 05:06 145 0 gusting 2 2.8
2019-Dec-15 05:00 145 2.8
2019-Dec-15 04:55 145 2.8
2019-Dec-15 04:50 145 2.8
2019-Dec-15 04:45 145 2.8
2019-Dec-15 04:40 142 2.8
2019-Dec-15 04:35 142 2.8
2019-Dec-15 04:30 142 2.8
2019-Dec-15 04:25 142 2.8
2019-Dec-15 04:20 142 2.8
2019-Dec-15 04:15 142 2.8
2019-Dec-15 04:10 142 2.8
2019-Dec-15 04:05 142 2.8
2019-Dec-15 04:00 142 2.8
2019-Dec-15 03:55 142 1 gusting 6 2.8
2019-Dec-15 03:50 145 2.8
2019-Dec-15 03:45 145 2.8
2019-Dec-15 03:40 146 0 gusting 4 2.8
2019-Dec-15 03:35 146 2.8
2019-Dec-15 03:30 145 2.8
2019-Dec-15 03:25 144 2 gusting 7 2.8
2019-Dec-15 03:20 137 0 gusting 6 2.8
2019-Dec-15 03:15 139 2 gusting 6 2.8
2019-Dec-15 03:10 138 1 gusting 6 2.8
2019-Dec-15 03:05 136 2 gusting 6 2.8
2019-Dec-15 03:00 134 2.8
2019-Dec-15 02:55 134 2.8
2019-Dec-15 02:50 135 1 gusting 6 2.8
2019-Dec-15 02:45 133 2.8
2019-Dec-15 02:40 134 1 gusting 3 2.8
2019-Dec-15 02:35 135 2.8
2019-Dec-15 02:30 135 2.8
2019-Dec-15 02:25 134 2.8
2019-Dec-15 02:20 133 0 gusting 4 2.8
2019-Dec-15 02:15 134 2.8
2019-Dec-15 02:10 130 2.8
2019-Dec-15 02:06 130 1 gusting 6 2.8
2019-Dec-15 02:00 130 2 gusting 4 2.8
2019-Dec-15 01:55 130 1 gusting 3 2.8
2019-Dec-15 01:50 130 2.8
2019-Dec-15 01:45 129 2.8
2019-Dec-15 01:40 130 2.8
2019-Dec-15 01:35 130 0 gusting 6 2.8
2019-Dec-15 01:30 130 0 gusting 4 2.8
2019-Dec-15 01:25 137 2.8
2019-Dec-15 01:20 138 2.8
2019-Dec-15 01:15 138 2.8
2019-Dec-15 01:10 138 2.8
2019-Dec-15 01:05 138 2.8
2019-Dec-15 01:00 138 0 gusting 6 2.8
2019-Dec-15 00:55 133 1 gusting 6 2.8
2019-Dec-15 00:50 133 0 gusting 4 2.8
2019-Dec-15 00:45 133 2.8
2019-Dec-15 00:40 134 2.8
2019-Dec-15 00:35 134 2.8
2019-Dec-15 00:30 133 2.8
2019-Dec-15 00:25 133 2.8
2019-Dec-15 00:20 134 2.8
2019-Dec-15 00:15 134 2.8
2019-Dec-15 00:10 134 0 gusting 6 2.8
2019-Dec-15 00:05 134 0 gusting 6 2.2
2019-Dec-15 00:00 138 1 gusting 6 2.2
2019-Dec-14 23:55 123 1 gusting 5 2.2
2019-Dec-14 23:50 123 1 gusting 5 2.2
2019-Dec-14 23:45 123 1 gusting 5 2.2
2019-Dec-14 23:40 122 0 gusting 5 2.2
2019-Dec-14 23:35 123 2.2
2019-Dec-14 23:30 122 2.2
2019-Dec-14 23:25 122 2.2
2019-Dec-14 23:20 123 2.2
2019-Dec-14 23:15 123 2.2
2019-Dec-14 23:10 123 2.2
2019-Dec-14 23:05 122 2.2
2019-Dec-14 23:00 122 0 gusting 3 2.2
2019-Dec-14 22:55 122 2.2
2019-Dec-14 22:50 123 2.2
2019-Dec-14 22:45 122 2.2
2019-Dec-14 22:40 123 2.2
2019-Dec-14 22:35 122 2.2
2019-Dec-14 22:30 123 2.2
2019-Dec-14 22:25 123 2.2
2019-Dec-14 22:20 123 2.2
2019-Dec-14 22:15 123 2.2
2019-Dec-14 22:10 123 1 gusting 3 2.2
2019-Dec-14 22:05 122 2.2
2019-Dec-14 22:00 123 2.2
2019-Dec-14 21:55 122 2.2
2019-Dec-14 21:50 123 2.2
2019-Dec-14 21:45 123 2.2
2019-Dec-14 21:40 123 2.2
2019-Dec-14 21:35 123 2.2
2019-Dec-14 21:30 122 2.2
2019-Dec-14 21:25 122 2.2
2019-Dec-14 21:20 123 2.2
2019-Dec-14 21:00 122 2.2
2019-Dec-14 20:55 123 2.2
2019-Dec-14 20:50 123 2.2
2019-Dec-14 20:45 122 2.2
2019-Dec-14 20:40 123 2.2
2019-Dec-14 20:35 123 2.2
2019-Dec-14 20:30 123 2.2
2019-Dec-14 20:25 123 2.2
2019-Dec-14 20:20 123 2.2
2019-Dec-14 20:15 122 2.2
2019-Dec-14 20:10 122 2.2
2019-Dec-14 20:06 123 2.2
2019-Dec-14 20:00 123 2.2
2019-Dec-14 19:55 122 2.2
2019-Dec-14 19:50 122 2.2
2019-Dec-14 19:45 123 2.2
2019-Dec-14 19:40 122 2.2
2019-Dec-14 19:35 122 2.2
2019-Dec-14 19:30 122 2.2
2019-Dec-14 19:25 122 1.7
2019-Dec-14 19:20 123 1.7
2019-Dec-14 19:15 122 1.7
2019-Dec-14 19:10 122 1.7
2019-Dec-14 19:06 123 1.7
2019-Dec-14 19:00 122 1.7
2019-Dec-14 18:55 122 1.7
2019-Dec-14 18:50 123 1.7
2019-Dec-14 18:45 123 1.7
2019-Dec-14 18:40 123 1.7
2019-Dec-14 18:35 123 1.7
2019-Dec-14 18:30 123 1.7
2019-Dec-14 18:25 122 1.7
2019-Dec-14 18:20 122 1.7
2019-Dec-14 18:15 122 1.7
2019-Dec-14 18:10 122 1.7
2019-Dec-14 18:05 123 1.7
2019-Dec-14 18:00 123 1.7
2019-Dec-14 17:55 122 1.7
2019-Dec-14 17:50 123 2.2
2019-Dec-14 17:45 123 2.2
2019-Dec-14 17:40 123 2.2
2019-Dec-14 17:35 123 2.2
2019-Dec-14 17:30 122 2.2
2019-Dec-14 17:25 122 2.2
2019-Dec-14 17:20 122 2.2
2019-Dec-14 17:15 122 2.2
2019-Dec-14 17:10 122 2.2
2019-Dec-14 17:05 123 2.2
2019-Dec-14 17:00 123 2.2
2019-Dec-14 16:55 122 2.2
2019-Dec-14 16:50 123 2.2
2019-Dec-14 16:45 122 2.2
2019-Dec-14 16:40 122 2.2
2019-Dec-14 16:35 123 2.2
2019-Dec-14 16:30 122 2.2
2019-Dec-14 16:25 123 2.2
2019-Dec-14 16:20 123 2.2
2019-Dec-14 16:15 123 2.2
2019-Dec-14 16:10 122 0 gusting 5 2.2
2019-Dec-14 16:06 125 2.2
2019-Dec-14 16:00 125 2.2
2019-Dec-14 15:55 125 2.8
2019-Dec-14 15:50 125 2.8
2019-Dec-14 15:45 125 2.8
2019-Dec-14 15:40 125 1 gusting 6 2.8
2019-Dec-14 15:35 125 2.8
2019-Dec-14 15:30 125 0 gusting 6 2.8
2019-Dec-14 15:25 121 1 gusting 6 2.8
2019-Dec-14 15:20 125 3 gusting 6 2.8
2019-Dec-14 15:15 114 0 gusting 5 2.8
2019-Dec-14 15:10 117 3.3
2019-Dec-14 15:06 117 3.3
2019-Dec-14 15:00 117 3.3
2019-Dec-14 14:55 117 3.3
2019-Dec-14 14:50 117 3.3
2019-Dec-14 14:45 117 3.3
2019-Dec-14 14:40 117 2.8
2019-Dec-14 14:35 120 0 gusting 6 2.8
2019-Dec-14 14:30 116 0 gusting 6 2.8
2019-Dec-14 14:25 123 2.8
2019-Dec-14 14:20 126 1 gusting 3 2.8
2019-Dec-14 14:15 125 0 gusting 3 2.8
2019-Dec-14 14:10 121 0 gusting 5 2.8
2019-Dec-14 14:05 125 0 gusting 5 2.8
2019-Dec-14 14:00 126 0 gusting 3 2.8
2019-Dec-14 13:55 127 2.8
2019-Dec-14 13:50 126 2.8
2019-Dec-14 13:45 130 2.8
2019-Dec-14 13:40 130 2.8
2019-Dec-14 13:35 130 1 gusting 6 2.8
2019-Dec-14 13:30 114 3.3
2019-Dec-14 13:25 114 0 gusting 3 3.3
2019-Dec-14 13:20 114 3.3
2019-Dec-14 13:15 111 3.3
2019-Dec-14 13:10 110 0 gusting 8 3.3
2019-Dec-14 13:06 119 2 gusting 6 2.8
2019-Dec-14 13:00 117 0 gusting 5 2.8
2019-Dec-14 12:55 117 2.8
2019-Dec-14 12:50 117 1 gusting 5 2.8
2019-Dec-14 12:45 117 2.8
2019-Dec-14 12:40 118 2.8
2019-Dec-14 12:35 118 2.8
2019-Dec-14 12:30 118 2.8
2019-Dec-14 12:25 118 2.8
2019-Dec-14 12:20 118 2.8
2019-Dec-14 12:15 111 2.8
2019-Dec-14 12:10 111 1 gusting 6 2.8
2019-Dec-14 12:05 109 0 gusting 5 2.8
2019-Dec-14 12:00 110 1 gusting 5 2.8
2019-Dec-14 11:55 110 2.8
2019-Dec-14 11:50 110 2.8
2019-Dec-14 11:45 110 2.8
2019-Dec-14 11:40 110 2.8
2019-Dec-14 11:35 111 2.8
2019-Dec-14 11:30 111 2.8
2019-Dec-14 11:25 111 0 gusting 6 2.8
2019-Dec-14 11:20 113 2.8
2019-Dec-14 11:15 113 2.8
2019-Dec-14 11:10 113 2.2
2019-Dec-14 11:05 113 2.2
2019-Dec-14 11:00 113 2.2
2019-Dec-14 10:55 113 2.2
2019-Dec-14 10:50 113 2.2
2019-Dec-14 10:45 113 2.2
2019-Dec-14 10:40 113 2.2
2019-Dec-14 10:35 113 2.2
2019-Dec-14 10:30 113 2.2
2019-Dec-14 10:25 113 2.2
2019-Dec-14 10:20 113 0 gusting 5 2.2
2019-Dec-14 10:15 114 2.2
2019-Dec-14 10:10 123 1 gusting 5 2.2
2019-Dec-14 10:05 123 2.2
2019-Dec-14 10:00 123 0 gusting 5 2.2
2019-Dec-14 09:55 123 0 gusting 6 2.2
2019-Dec-14 09:50 122 1 gusting 6 2.2
2019-Dec-14 09:45 126 4 gusting 6 2.2
2019-Dec-14 09:40 128 2.2
2019-Dec-14 09:35 131 0 gusting 4 2.2
2019-Dec-14 09:30 132 0 gusting 4 2.2
2019-Dec-14 09:25 130 2.2
2019-Dec-14 09:20 132 0 gusting 6 2.2
2019-Dec-14 09:00 134 3 gusting 7 2.2
2019-Dec-14 08:50 130 2.2
2019-Dec-14 08:45 123 2.2
2019-Dec-14 08:40 122 3 gusting 6 2.8
2019-Dec-14 08:35 126 2.8
2019-Dec-14 08:30 138 2 gusting 8 2.8
2019-Dec-14 08:25 132 1 gusting 8 2.8
2019-Dec-14 08:20 122 3 gusting 7 2.8
2019-Dec-14 08:15 125 1 gusting 7 2.8
2019-Dec-14 08:10 132 1 gusting 6 2.8
2019-Dec-14 08:05 140 2.8
2019-Dec-14 08:00 142 1 gusting 6 2.8
2019-Dec-14 07:55 128 2 gusting 7 2.8
2019-Dec-14 07:50 128 1 gusting 7 2.8
2019-Dec-14 07:45 137 2 gusting 6 2.8
2019-Dec-14 07:40 130 2 gusting 9 2.8
2019-Dec-14 07:35 142 0 gusting 9 2.8
2019-Dec-14 07:30 136 2 gusting 7 2.8
2019-Dec-14 07:25 138 2 gusting 7 2.8
2019-Dec-14 07:20 150 1 gusting 8 2.8
2019-Dec-14 07:15 127 5 gusting 8 2.8
2019-Dec-14 07:10 141 2 gusting 9 2.8
2019-Dec-14 07:06 129 5 gusting 9 2.8
2019-Dec-14 07:00 134 5 gusting 11 2.8
2019-Dec-14 06:55 122 5 gusting 11 2.8
2019-Dec-14 06:50 129 2.8
2019-Dec-14 06:45 132 0 gusting 10 2.8
2019-Dec-14 06:40 133 5 gusting 10 2.8
2019-Dec-14 06:35 140 1 gusting 7 2.2
2019-Dec-14 06:30 125 2.2
2019-Dec-14 06:25 125 2.2
2019-Dec-14 06:20 118 0 gusting 7 2.2
2019-Dec-14 06:15 137 2.2
2019-Dec-14 06:10 123 2.2
2019-Dec-14 06:05 121 3 gusting 8 2.2
2019-Dec-14 06:00 136 0 gusting 8 2.2
2019-Dec-14 05:55 132 3 gusting 8 2.2
2019-Dec-14 05:50 134 2.2
2019-Dec-14 05:45 125 2.2
2019-Dec-14 05:40 130 0 gusting 11 2.2
2019-Dec-14 05:35 106 3 gusting 12 2.2
2019-Dec-14 05:30 119 3 gusting 10 2.2
2019-Dec-14 05:25 134 1 gusting 7 2.2
2019-Dec-14 05:20 130 3 gusting 10 2.2
2019-Dec-14 05:15 126 2 gusting 10 2.2
2019-Dec-14 05:10 119 4 gusting 12 2.2
2019-Dec-14 05:05 149 6 gusting 12 2.2
2019-Dec-14 05:00 125 2 gusting 9 2.2
2019-Dec-14 04:55 117 4 gusting 9 2.2
2019-Dec-14 04:50 100 2 gusting 9 2.2
2019-Dec-14 04:45 125 3 gusting 9 2.8
2019-Dec-14 04:40 122 3 gusting 11 2.8
2019-Dec-14 04:35 105 3 gusting 11 2.2
2019-Dec-14 04:30 115 0 gusting 6 2.2
2019-Dec-14 04:25 109 1 gusting 7 2.2
2019-Dec-14 04:20 095 5 gusting 9 2.2
2019-Dec-14 04:15 114 4 gusting 9 2.8
2019-Dec-14 04:10 113 1 gusting 9 2.2
2019-Dec-14 04:05 105 2 gusting 9 2.2
2019-Dec-14 04:00 100 2 gusting 8 2.8
2019-Dec-14 03:55 076 1 gusting 8 2.8
2019-Dec-14 03:50 109 1 gusting 8 2.8
2019-Dec-14 03:45 117 0 gusting 8 2.8
2019-Dec-14 03:40 094 4 gusting 7 2.8
2019-Dec-14 03:35 100 2.8
2019-Dec-14 03:30 098 2 gusting 8 2.8
2019-Dec-14 03:25 121 1 gusting 8 2.8
2019-Dec-14 03:20 094 3 gusting 7 2.8
2019-Dec-14 03:15 125 2.2
2019-Dec-14 03:10 107 4 gusting 10 2.2
2019-Dec-14 03:06 114 5 gusting 9 2.2
2019-Dec-14 03:00 103 1 gusting 6 2.2
2019-Dec-14 02:55 111 1 gusting 6 2.2
2019-Dec-14 02:50 097 2 gusting 6 2.2
2019-Dec-14 02:45 117 3 gusting 6 2.2
2019-Dec-14 02:40 105 2 gusting 6 2.2
2019-Dec-14 02:35 117 2.2
2019-Dec-14 02:30 110 2 gusting 9 2.2
2019-Dec-14 02:25 119 5 gusting 8 2.2
2019-Dec-14 02:20 109 3 gusting 9 2.2
2019-Dec-14 02:15 095 4 gusting 9 2.2
2019-Dec-14 02:10 091 0 gusting 7 2.2
2019-Dec-14 02:06 098 1 gusting 8 2.2
2019-Dec-14 02:00 118 3 gusting 8 2.2
2019-Dec-14 01:55 124 0 gusting 6 2.2
2019-Dec-14 01:50 123 3 gusting 6 2.2
2019-Dec-14 01:45 098 1 gusting 7 2.2
2019-Dec-14 01:40 102 0 gusting 7 2.2
2019-Dec-14 01:35 109 4 gusting 9 2.2
2019-Dec-14 01:30 109 2 gusting 10 2.2
2019-Dec-14 01:25 113 1 gusting 10 2.8
2019-Dec-14 01:20 119 2 gusting 10 2.8
2019-Dec-14 01:15 109 4 gusting 10 2.8
2019-Dec-14 01:10 107 4 gusting 8 2.8
2019-Dec-14 01:05 122 1 gusting 5 2.8
2019-Dec-14 01:00 117 2.8
2019-Dec-14 00:55 107 2.8
2019-Dec-14 00:50 115 2 gusting 8 2.8
2019-Dec-14 00:45 098 5 gusting 9 2.8
2019-Dec-14 00:40 094 6 gusting 9 2.8
2019-Dec-14 00:35 099 2 gusting 10 2.8
2019-Dec-14 00:30 123 4 gusting 9 2.8
2019-Dec-14 00:25 121 1 gusting 9 2.8
2019-Dec-14 00:20 128 2 gusting 9 2.8
2019-Dec-14 00:15 102 2 gusting 10 2.8
2019-Dec-14 00:10 116 5 gusting 10 2.8
2019-Dec-14 00:05 119 2 gusting 7 2.8
2019-Dec-14 00:00 107 3 gusting 6 2.8
2019-Dec-13 23:55 093 0 gusting 9 2.8
2019-Dec-13 23:50 111 0 gusting 10 2.8
2019-Dec-13 23:45 101 4 gusting 10 2.8
2019-Dec-13 23:40 107 1 gusting 11 2.8
2019-Dec-13 23:35 133 3 gusting 13 2.8
2019-Dec-13 23:30 115 0 gusting 9 2.8
2019-Dec-13 23:25 128 2 gusting 12 3.3
2019-Dec-13 23:20 119 6 gusting 12 3.3
2019-Dec-13 23:15 108 4 gusting 10 3.3
2019-Dec-13 23:10 110 4 gusting 8 3.3
2019-Dec-13 23:05 111 3 gusting 8 3.3
2019-Dec-13 23:00 107 3 gusting 10 3.3
2019-Dec-13 22:55 109 6 gusting 10 3.3
2019-Dec-13 22:50 122 5 gusting 9 3.3
2019-Dec-13 22:45 115 6 gusting 9 3.3
2019-Dec-13 22:40 101 3 gusting 7 3.3
2019-Dec-13 22:35 107 3 gusting 7 3.3
2019-Dec-13 22:30 123 0 gusting 10 3.3
2019-Dec-13 22:25 113 3.3
2019-Dec-13 22:20 109 3 gusting 8 3.3
2019-Dec-13 22:15 112 4 gusting 8 3.3
2019-Dec-13 22:10 128 4 gusting 10 3.3
2019-Dec-13 22:06 095 4 gusting 10 3.3
2019-Dec-13 22:00 078 3 gusting 7 3.3
2019-Dec-13 21:55 107 1 gusting 6 3.3
2019-Dec-13 21:50 090 2 gusting 7 2.8
2019-Dec-13 21:45 105 1 gusting 7 2.8
2019-Dec-13 21:40 080 1 gusting 6 2.8
2019-Dec-13 21:35 101 2.8
2019-Dec-13 21:30 107 4 gusting 7 2.8
2019-Dec-13 21:25 106 4 gusting 6 2.8
2019-Dec-13 21:20 096 0 gusting 6 2.8
2019-Dec-13 21:15 113 2 gusting 5 2.8
2019-Dec-13 21:10 115 2.8
2019-Dec-13 21:06 117 2 gusting 6 2.8
2019-Dec-13 21:00 106 2 gusting 6 2.8
2019-Dec-13 20:55 108 2.8
2019-Dec-13 20:50 120 3 gusting 9 2.8
2019-Dec-13 20:45 107 1 gusting 6 2.8
2019-Dec-13 20:40 111 2.8
2019-Dec-13 20:35 092 4 gusting 10 2.8
2019-Dec-13 20:30 105 3 gusting 9 2.8
2019-Dec-13 20:25 094 4 gusting 8 2.8
2019-Dec-13 20:20 097 3 gusting 9 2.8
2019-Dec-13 20:15 116 4 gusting 11 2.8
2019-Dec-13 20:10 090 0 gusting 8 2.8
2019-Dec-13 20:06 115 3 gusting 8 2.8
2019-Dec-13 20:00 102 3 gusting 7 2.8
2019-Dec-13 19:55 112 3 gusting 11 2.8
2019-Dec-13 19:50 107 4 gusting 11 2.8
2019-Dec-13 19:45 102 1 gusting 11 2.8
2019-Dec-13 19:40 122 3 gusting 7 2.8
2019-Dec-13 19:35 107 5 gusting 12 2.8
2019-Dec-13 19:30 109 6 gusting 12 2.8
2019-Dec-13 19:25 109 2 gusting 9 2.8
2019-Dec-13 19:20 110 1 gusting 10 2.8
2019-Dec-13 19:15 109 4 gusting 10 2.8
2019-Dec-13 19:10 090 3 gusting 8 2.8
2019-Dec-13 19:05 111 4 gusting 10 2.8
2019-Dec-13 19:00 105 3 gusting 10 2.8
2019-Dec-13 18:55 122 4 gusting 8 2.8
2019-Dec-13 18:50 095 4 gusting 9 2.8
2019-Dec-13 18:45 118 2 gusting 9 2.8
2019-Dec-13 18:40 096 4 gusting 10 2.8
2019-Dec-13 18:35 098 3 gusting 10 2.8
2019-Dec-13 18:30 109 3 gusting 9 2.8
2019-Dec-13 18:25 101 2 gusting 6 2.8
2019-Dec-13 18:20 098 0 gusting 6 2.8
2019-Dec-13 18:15 113 3 gusting 6 2.8
2019-Dec-13 18:10 107 1 gusting 9 2.8
2019-Dec-13 18:05 120 4 gusting 9 2.8
2019-Dec-13 18:00 108 3 gusting 7 2.8
2019-Dec-13 17:55 100 3 gusting 7 2.8
2019-Dec-13 17:50 102 2 gusting 5 2.8
2019-Dec-13 17:45 099 1 gusting 7 2.8
2019-Dec-13 17:40 090 2 gusting 7 2.8
2019-Dec-13 17:35 113 3 gusting 7 2.8
2019-Dec-13 17:30 093 0 gusting 5 2.8
2019-Dec-13 17:25 107 2 gusting 5 2.8
2019-Dec-13 17:20 105 3 gusting 6 2.8
2019-Dec-13 17:15 110 1 gusting 7 2.8
2019-Dec-13 17:10 105 2 gusting 7 2.8
2019-Dec-13 17:05 105 2.8
2019-Dec-13 17:00 106 1 gusting 5 2.8
2019-Dec-13 16:55 104 1 gusting 6 2.8
2019-Dec-13 16:50 101 0 gusting 9 2.8
2019-Dec-13 16:45 100 2 gusting 9 2.8
2019-Dec-13 16:40 109 3 gusting 6 2.8
2019-Dec-13 16:36 111 2 gusting 6 2.8
2019-Dec-13 16:30 108 3 gusting 6 2.8
2019-Dec-13 16:25 110 0 gusting 6 2.8
2019-Dec-13 16:20 110 4 gusting 6 2.8
2019-Dec-13 16:15 112 0 gusting 3 2.8
2019-Dec-13 16:10 111 2.8
2019-Dec-13 16:05 111 0 gusting 3 2.8
2019-Dec-13 16:00 112 2.8
2019-Dec-13 15:55 112 0 gusting 5 2.8
2019-Dec-13 15:50 111 2.8
2019-Dec-13 15:45 111 3 gusting 5 2.8
2019-Dec-13 15:40 118 1 gusting 5 2.8
2019-Dec-13 15:35 119 0 gusting 3 2.8
2019-Dec-13 15:30 122 0 gusting 2 2.2
2019-Dec-13 15:25 122 0 gusting 2 2.2
2019-Dec-13 15:20 123 2.2
2019-Dec-13 15:15 123 2.2
2019-Dec-13 15:10 123 2.2
2019-Dec-13 15:06 123 2.2
2019-Dec-13 15:00 123 2.2
2019-Dec-13 14:55 122 2.2
2019-Dec-13 14:50 122 2.2
2019-Dec-13 14:45 122 2.8
2019-Dec-13 14:40 123 1 gusting 6 2.8
2019-Dec-13 14:35 126 1 gusting 6 2.8
2019-Dec-13 14:30 126 0 gusting 4 2.8
2019-Dec-13 14:25 128 2.8
2019-Dec-13 14:20 128 2.8
2019-Dec-13 14:15 128 2.8
2019-Dec-13 14:10 128 2.8
2019-Dec-13 14:06 128 2.8
2019-Dec-13 14:00 128 2.8
2019-Dec-13 13:55 128 2.8
2019-Dec-13 13:50 128 0 gusting 3 2.8
2019-Dec-13 13:45 128 1 gusting 3 2.8
2019-Dec-13 13:40 128 1 gusting 3 2.8
2019-Dec-13 13:35 128 2.8
2019-Dec-13 13:30 128 2.8
2019-Dec-13 13:25 128 0 gusting 4 2.8
2019-Dec-13 13:20 128 2.8
2019-Dec-13 13:15 130 1 gusting 4 2.8
2019-Dec-13 13:10 131 2.8
2019-Dec-13 13:06 131 2.8
2019-Dec-13 13:00 131 1 gusting 4 2.8
2019-Dec-13 12:55 132 2.8
2019-Dec-13 12:50 132 2.8
2019-Dec-13 12:45 132 0 gusting 3 2.8
2019-Dec-13 12:40 133 0 gusting 2 2.8
2019-Dec-13 12:35 134 2.8
2019-Dec-13 12:30 134 2.8
2019-Dec-13 12:25 134 2.8
2019-Dec-13 12:20 134 2.8
2019-Dec-13 12:15 134 2.8
2019-Dec-13 12:10 134 2.8
2019-Dec-13 12:06 134 2.8
2019-Dec-13 12:00 134 2.8